Content
SEND FEEDBACK

Daily
Averages
Monthly
Summary
United States of America

WAHWEAP, ARIZONA


Home > North America > United States > Arizona
Elevation: 3703 feet     Latitude: 36 59N     Longitude: 111 29W

WEATHER
 
SELECT A DAY
Number of Records: 194,728;   Date Range: 1/1/95 - 7/29/14
 
SHARE

PRINT THIS DATA

[ ← Previous Day ]
WEATHER ALMANAC - JANUARY 25, 2013
[ Next Day → ]
[ °C ]   °F
Weather ElementAverageHighLow
Temperature42.6 °F48 °F (3:53 pm)37.9 °F (6:53 am)
Dewpoint31 °F33.1 °F (7:53 pm)28.4 °F (1:09 am)
Humidity63.8 %70 % (1:53 am)54 % (2:53 pm)
Barometer30.25 in30.33 in (10:53 am)30.14 in (11:53 pm)
Wind Speed1.1 mph5.8 mph (2:53 pm)
Weather ElementAverage
Visibility9.8 mi
Wind DirectionNE (50.4 °)

Weather ElementTotal
Precipitation---
Heating Degree Days22.1 (Base 65)
Averaged from 24 records on January 25, 2013
WEATHER CONDITIONS BREAKOUT
WIND DIRECTION BREAKOUT
WEATHER BY HOUR - JANUARY 25, 2013
[ °C ]   °F
Local TimeTemperatureDewpointHumidityBarometerVisibilityWind DirectionWind SpeedGust SpeedPrecipitationEventsConditions
1:09 AM39.2 °F28.4 °F65 %30.31 in10.0 miCalm0.00 inOvercast
1:53 AM39.0 °F30.0 °F70 %30.30 in10.0 miCalm0.00 inOvercast
2:53 AM39.9 °F30.0 °F68 %30.30 in7.0 miCalmOvercast
3:53 AM39.9 °F30.0 °F68 %30.30 in10.0 miCalmOvercast
4:53 AM39.0 °F30.0 °F70 %30.30 in10.0 miCalmOvercast
5:53 AM39.0 °F28.9 °F67 %30.29 in10.0 miCalmOvercast
6:53 AM37.9 °F28.9 °F70 %30.31 in10.0 miSouth (170°)4.6 mphOvercast
7:53 AM39.0 °F30.0 °F70 %30.31 in10.0 miCalmOvercast
8:53 AM41.0 °F30.9 °F67 %30.30 in10.0 miCalmOvercast
9:53 AM39.9 °F30.9 °F70 %30.32 in10.0 miNNW (340°)3.5 mphOvercast
10:53 AM41.0 °F30.9 °F67 %30.33 in10.0 miVariable3.5 mphOvercast
11:53 AM43.0 °F30.9 °F62 %30.30 in10.0 miNNW (340°)4.6 mphOvercast
12:53 PM45.0 °F30.0 °F56 %30.25 in10.0 miCalmOvercast
1:53 PM45.0 °F30.9 °F58 %30.23 in10.0 miNNW (330°)4.6 mphOvercast
2:53 PM46.9 °F30.9 °F54 %30.19 in10.0 miNNE (30°)5.8 mphOvercast
3:53 PM48.0 °F32.0 °F54 %30.18 in10.0 miCalmClear
4:53 PM46.0 °F32.0 °F58 %30.19 in10.0 miCalmMostly Cloudy
5:53 PM45.0 °F32.0 °F60 %30.19 in10.0 miCalmOvercast
6:53 PM45.0 °F32.0 °F60 %30.18 in10.0 miCalmOvercast
7:53 PM45.0 °F33.1 °F63 %30.18 in10.0 miCalmMostly Cloudy
8:53 PM45.0 °F33.1 °F63 %30.17 in10.0 miCalmOvercast
9:53 PM44.1 °F33.1 °F65 %30.17 in10.0 miCalmOvercast
10:53 PM45.0 °F33.1 °F63 %30.15 in10.0 miCalmOvercast
11:53 PM45.0 °F33.1 °F63 %30.14 in9.0 miCalmOvercast
Hourly data recorded from KPGA, located miles away from Wahweap, Arizona







STORIES FROM OUR PARTNERS